SCP
0 0 0 0 0 0 0 0 0 0 0 0 0 0 0 0 0 0 0 0 0 0 0 0 0 0 0 0 0 0 0 0 0 0 0 0 0 0 0 0 0 0 0 0 0 0 0 0 0
0 0 0 0 0 0 0 0 0 0 0 0 0 0 0 0 0 0 0 0 0 0 0 0 0 0 0 0 0 0 0 0 0 0 0 0 0 0 0 0 0 0 0 0 0 0 0 0 0
0 0 0 0 0 0 0 0 0 0 0 0 0 0 0 0 0 0 0 0 0 0 0 0 0 0 0 0 0 0 0 0 0 0 0 0 0 0 0 0 0 0 0 0 0 0 0 0 0
0 0 0 0 0 0 0 0 0 0 0 0 0 0 0 0 0 0 0 0 0 0 0 0 0 0 0 0 0 0 0 0 0 0 0 0 0 0 0 0 0 0 0 0 0 0 0 0 0
0 0 0 0 0 0 0 0 0 0 0 0 0 0 0 0 0 0 0 0 0 0 0 0 0 0 0 0 0 0 0 0 0 0 0 0 0 0 0 0 0 0 0 0 0 0 0 0 0
0 0 0 0 0 0 0 0 0 0 0 0 0 0 0 0 0 0 0 0 0 0 0 0 0 0 0 0 0 0 0 0 0 0 0 0 0 0 0 0 0 0 0 0 0 0 0 0 0
0 0 0 0 0 0 0 0 0 0 0 0 0 0 0 0 0 0 0 0 0 0 0 0 0 0 0 0 0 0 0 0 0 0 0 0 0 0 0 0 0 0 0 0 0 0 0 0 0
0 0 0 0 0 0 0 0 0 0 0 0 0 0 0 0 0 0 0 0 0 0 0 0 0 0 0 0 0 0 0 0 0 0 0 0 0 0 0 0 0 0 0 0 0 0 0 0 0
0 0 0 0 0 0 0 0 0 0 0 0 0 0 0 0 0 0 0 0 0 0 0 0 0 0 0 0 0 0 0 0 0 0 0 0 0 0 0 0 0 0 0 0 0 0 0 0 0
0 0 0 0 0 0 0 0 0 0 0 0 0 0 0 0 0 0 0 0 0 0 0 0 0 0 0 0 0 0 0 0 0 0 0 0 0 0 0 0 0 0 0 0 0 0 0 0 0
0 0 0 0 0 0 0 0 0 0 0 0 0 0 0 0 0 0 0 0 0 0 0 0 0 0 0 0 0 0 0 0 0 0 0 0 0 0 0 0 0 0 0 0 0 0 0 0 0
0 0 0 0 0 0 0 0 0 0 0 0 0 0 0 0 0 0 0 0 0 0 0 0 0 0 0 0 0 0 0 0 0 0 0 0 0 0 0 0 0 0 0 0 0 0 0 0 0
0 0 0 0 0 0 0 0 0 0 0 0 0 0 0 0 0 0 0 0 0 0 0 0 0 0 0 0 0 0 0 0 0 0 0 0 0 0 0 0 0 0 0 0 0 0 0 0 0
0 0 0 0 0 0 0 0 0 0 0 0 0 0 0 0 0 0 0 0 0 0 0 0 0 0 0 0 0 0 0 0 0 0 0 0 0 0 0 0 0 0 0 0 0 0 0 0 0
0 0 0 0 0 0 0 0 0 0 0 0 0 0 0 0 0 0 0 0 0 0 0 0 0 0 0 0 0 0 0 0 0 0 0 0 0 0 0 0 0 0 0 0 0 0 0 0 0
0 0 0 0 0 0 0 0 0 0 0 0 0 0 0 0 0 0 0 0 0 0 0 0 0 0 0 0 0 0 0 0 0 0 0 0 0 0 0 0 0 0 0 0 0 0 0 0 0
0 0 0 0 0 0 0 0 0 0 0 0 0 0 0 0 0 0 0 0 0 0 0 0 0 0 0 0 0 0 0 0 0 0 0 0 0 0 0 0 0 0 0 0 0 0 0 0 0
0 0 0 0 0 0 0 0 0 0 0 0 0 0 0 0 0 0 0 0 0 0 0 0 0 0 0 0 0 0 0 0 0 0 0 0 0 0 0 0 0 0 0 0 0 0 0 0 0
0 0 0 0 0 0 0 0 0 0 0 0 0 0 0 0 0 0 0 0 0 0 0 0 0 0 0 0 0 0 0 0 0 0 0 0 0 0 0 0 0 0 0 0 0 0 0 0 0
0 0 0 0 0 0 0 0 0 0 0 0 0 0 0 0 0 0 0 0 0 0 0 0 0 0 0 0 0 0 0 0 0 0 0 0 0 0 0 0 0 0 0 0 0 0 0 0 0
0 0 0 0 0 0 0 0 0 0 0 0 0 0 0 0 0 0 0 0 0 0 0 0 0 0 0 0 0 0 0 0 0 0 0 0 0 0 0 0 0 0 0 0 0 0 0 0 0
0 0 0 0 0 0 0 0 0 0 0 0 0 0 0 0 0 0 0 0 0 0 0 0 0 0 0 0 0 0 0 0 0 0 0 0 0 0 0 0 0 0 0 0 0 0 0 0 0
0 0 0 0 0 0 0 0 0 0 0 0 0 0 0 0 0 0 0 0 0 0 0 0 0 0 0 0 0 0 0 0 0 0 0 0 0 0 0 0 0 0 0 0 0 0 0 0 0
0 0 0 0 0 0 0 0 0 0 0 0 0 0 0 0 0 0 0 0 0 0 0 0 0 0 0 0 0 0 0 0 0 0 0 0 0 0 0 0 0 0 0 0 0 0 0 0 0
0 0 0 0 0 0 0 0 0 0 0 0 0 0 0 0 0 0 0 0 0 0 0 0 0 0 0 0 0 0 0 0 0 0 0 0 0 0 0 0 0 0 0 0 0 0 0 0 0
0 0 0 0 0 0 0 0 0 0 0 0 0 0 0 0 0 0 0 0 0 0 0 0 0 0 0 0 0 0 0 0 0 0 0 0 0 0 0 0 0 0 0 0 0 0 0 0 0
0 0 0 0 0 0 0 0 0 0 0 0 0 0 0 0 0 0 0 0 0 0 0 0 0 0 0 0 0 0 0 0 0 0 0 0 0 0 0 0 0 0 0 0 0 0 0 0 0
0 0 0 0 0 0 0 0 0 0 0 0 0 0 0 0 0 0 0 0 0 0 0 0 0 0 0 0 0 0 0 0 0 0 0 0 0 0 0 0 0 0 0 0 0 0 0 0 0
0 0 0 0 0 0 0 0 0 0 0 0 0 0 0 0 0 0 0 0 0 0 0 0 0 0 0 0 0 0 0 0 0 0 0 0 0 0 0 0 0 0 0 0 0 0 0 0 0
0 0 0 0 0 0 0 0 0 0 0 0 0 0 0 0 0 0 0 0 0 0 0 0 0 0 0 0 0 0 0 0 0 0 0 0 0 0 0 0 0 0 0 0 0 0 0 0 0
Wind_Speed
5 3 2 4 7 4 4 6 3 2 2 2 2 6 7 5 5 4 3 7 10 8 6 7 9 11 11 12 12 12 12 13 13 13 12 12 11 11 10 10 10 10 10 11 11 12 12 12 12
2 2 4 6 5 1 6 6 5 3 4 4 3 5 4 2 1 5 5 8 10 9 7 6 10 12 12 11 11 11 11 12 12 11 11 11 10 10 10 10 9 9 10 10 10 11 11 11 11
3 2 5 5 3 5 5 4 6 2 3 3 3 2 4 5 5 7 5 10 9 7 6 6 11 12 12 12 12 11 11 11 11 11 11 11 11 11 11 10 10 10 10 10 10 10 11 11 11
3 5 6 4 4 7 7 6 5 4 1 1 4 2 1 1 7 7 8 10 9 7 6 7 12 13 13 13 12 12 12 12 12 12 12 12 12 12 11 11 11 11 11 11 10 10 10 10 11
4 5 4 1 6 7 6 4 8 6 6 3 4 3 3 2 3 8 10 10 10 7 5 6 12 13 14 14 14 13 13 13 13 13 13 13 13 12 12 12 11 11 11 11 11 11 10 11 11
5 5 3 3 7 6 4 6 6 5 5 3 5 3 4 1 6 9 9 9 9 8 6 6 11 12 14 15 15 15 14 14 14 14 14 14 13 13 12 12 12 11 11 11 11 11 11 12 12
4 4 3 5 5 5 4 7 7 7 6 7 8 5 3 3 6 8 8 8 8 8 6 4 5 8 12 13 14 15 15 15 15 15 15 14 13 13 12 11 11 11 11 12 12 12 12 13 13
5 4 2 4 4 6 3 5 4 8 6 5 9 8 7 8 8 7 7 7 7 7 7 6 5 4 5 7 12 14 14 14 15 15 14 14 13 12 11 10 11 11 11 11 12 12 12 13 13
4 4 4 5 4 4 2 2 2 2 2 2 5 4 2 10 12 9 6 5 6 8 7 7 6 5 5 5 9 11 13 13 13 11 13 11 6 6 6 8 10 10 10 11 12 12 13 12 12
4 4 9 6 3 2 3 4 4 3 3 4 3 1 3 11 15 14 12 13 14 14 11 9 9 7 6 6 5 4 4 6 5 4 6 5 5 4 5 9 10 10 9 10 12 12 11 9 5
7 8 6 6 4 3 3 4 4 6 9 11 11 8 7 9 13 16 16 15 17 12 11 11 11 9 8 5 5 3 3 3 4 5 6 5 4 4 4 3 4 4 6 4 6 6 4 4 4
6 9 8 6 4 4 4 4 5 10 15 11 12 9 11 15 19 20 20 17 12 10 14 13 12 11 10 7 6 5 4 4 4 5 7 5 4 4 4 3 3 2 2 3 3 3 4 5 5
7 7 7 7 7 6 5 7 6 12 14 7 5 9 15 18 18 18 16 12 11 12 14 14 13 14 11 9 7 7 5 5 5 5 6 7 5 5 4 3 3 3 2 2 3 3 4 4 5
6 5 5 6 7 5 7 9 5 19 8 8 10 11 15 19 21 16 14 15 16 17 16 14 15 14 12 11 9 7 7 6 5 5 7 8 6 6 5 5 4 3 3 2 3 3 3 3 3
2 5 10 8 7 6 4 11 13 21 3 9 11 12 14 18 17 20 21 21 21 17 16 16 16 14 14 13 11 8 7 7 7 6 7 8 7 7 6 5 4 4 3 3 3 3 3 2 3
2 3 9 8 5 5 9 15 19 9 6 12 13 12 12 15 17 20 20 19 17 14 17 18 16 17 16 13 11 8 8 8 7 6 6 8 8 7 6 5 5 4 3 3 3 2 2 2 3
3 6 11 12 6 7 10 14 16 5 8 12 13 12 13 14 15 19 18 19 18 19 19 20 19 19 18 14 10 8 8 8 7 6 6 7 8 8 6 5 4 5 3 2 2 2 2 2 3
11 9 8 11 6 7 10 16 16 8 7 10 11 12 12 15 21 19 17 19 18 18 18 19 19 17 15 11 7 6 7 7 6 7 7 8 7 8 7 5 6 5 4 3 2 2 2 1 2
10 10 14 16 7 7 14 19 20 16 11 13 13 13 14 18 21 14 12 15 14 15 17 20 20 18 15 13 12 10 11 8 8 8 9 9 8 8 7 5 6 5 4 4 4 3 3 2 2
10 12 16 14 11 9 13 21 16 16 15 16 17 18 19 18 18 17 12 12 17 20 21 21 21 21 20 15 12 7 7 5 6 6 7 9 10 9 8 7 6 6 5 5 4 3 3 2 3
14 15 20 16 9 7 12 17 12 14 17 15 15 17 19 20 22 21 13 14 16 20 23 21 23 21 20 14 9 6 4 3 5 7 8 10 10 10 8 8 7 6 6 5 5 5 5 4 2
18 14 18 14 11 10 7 26 11 13 16 16 19 18 20 21 21 21 15 13 18 22 20 20 21 19 18 16 16 16 13 13 12 7 7 8 10 10 9 9 8 7 5 6 6 5 4 5 4
16 8 9 8 8 10 5 16 15 10 12 15 19 20 21 22 21 21 19 17 17 16 17 17 18 18 18 19 19 18 15 10 6 6 9 9 8 10 10 10 8 8 6 7 7 5 5 4 5
7 1 2 3 1 13 11 14 26 12 15 12 16 18 19 21 21 22 14 9 10 11 13 14 17 18 19 20 19 20 18 13 11 10 12 10 7 8 11 10 9 8 7 7 7 6 7 5 5
5 4 3 5 3 15 9 13 16 10 13 17 19 19 20 20 21 16 8 9 11 15 16 16 19 19 19 20 20 21 19 18 18 15 14 12 9 10 14 12 11 9 8 8 7 7 7 6 6
10 12 11 10 11 11 5 16 13 9 10 10 12 14 16 15 10 8 8 11 13 16 17 18 20 19 20 21 21 18 17 14 13 14 13 14 12 12 13 13 11 10 10 9 8 6 6 6 6
7 11 12 9 8 11 12 12 12 7 9 12 15 15 14 10 8 8 7 9 12 15 19 21 21 19 20 21 18 16 17 17 15 13 11 10 9 9 12 13 12 11 11 10 9 7 7 7 6
8 6 4 8 8 11 13 15 16 10 12 13 11 11 12 9 8 8 8 9 10 12 13 13 16 19 18 17 17 15 16 16 13 10 13 12 11 11 13 13 13 12 12 11 10 8 7 7 6
6 5 8 7 8 10 12 15 14 10 8 9 10 9 9 10 10 10 9 8 8 8 9 12 13 13 13 15 15 14 14 13 12 12 14 13 13 13 15 15 14 14 13 12 10 9 9 9 7
10 14 13 12 15 11 11 16 23 15 12 13 15 15 14 12 10 9 8 6 7 10 11 14 15 15 16 15 14 14 12 12 14 15 14 14 15 15 15 15 14 14 13 12 12 11 11 10 9
Wind_Direction
330 353 56 52 48 40 274 257 218 172 130 149 131 124 138 149 165 190 162 142 143 144 141 142 141 135 129 125 124 122 119 114 109 105 100 96 93 89 82 74 68 63 58 54 50 47 41 34 29
338 23 55 57 78 321 269 251 195 193 172 152 114 108 108 179 170 141 158 159 147 144 143 151 148 143 138 132 126 121 116 112 109 106 102 101 98 94 89 83 76 69 63 56 49 43 38 31 26
327 55 78 72 131 207 251 233 202 217 192 153 110 96 166 188 185 179 181 149 140 139 143 156 153 151 148 143 137 130 124 119 115 112 110 107 103 98 93 87 80 74 67 60 51 43 36 29 23
58 49 57 76 246 237 238 237 192 158 174 132 129 136 255 196 180 183 149 142 136 140 144 161 158 155 152 147 142 137 131 127 122 118 114 110 106 101 96 91 85 79 72 65 58 50 42 35 29
63 76 65 319 256 252 246 199 169 170 182 182 143 174 242 290 164 147 144 144 141 142 148 167 160 157 154 150 146 141 137 133 128 124 120 116 111 107 103 97 91 85 78 70 63 56 51 46 39
56 68 104 243 255 259 234 175 177 175 192 193 163 178 240 184 152 152 147 143 142 144 150 163 160 159 158 154 149 145 143 140 136 131 127 122 117 112 107 102 97 91 83 76 69 61 56 50 43
102 110 195 231 259 272 227 168 181 180 192 202 180 187 237 215 192 152 139 138 143 145 145 149 156 161 160 155 152 149 147 145 141 136 129 122 117 112 107 102 98 93 85 79 73 65 59 51 45
125 111 246 252 250 266 225 174 200 178 205 202 162 183 227 206 178 139 126 138 151 157 158 159 155 150 151 153 152 150 150 149 144 137 131 125 119 112 105 98 97 92 87 81 74 65 59 50 43
93 86 238 237 235 272 237 217 225 199 171 185 198 207 256 144 143 137 138 163 177 181 180 170 166 160 154 153 157 151 152 153 148 144 139 126 110 104 98 100 97 92 86 80 73 63 56 48 37
107 182 232 231 237 235 223 228 223 206 226 239 247 301 84 140 162 173 181 187 192 194 190 180 173 169 166 167 152 152 149 151 144 140 133 128 127 131 117 105 97 89 79 73 68 61 50 45 29
176 207 238 254 257 228 226 231 210 194 233 220 216 203 155 167 181 192 198 197 199 192 188 185 180 175 174 169 165 167 156 153 155 153 147 136 126 123 106 96 92 83 75 62 57 50 41 33 24
201 233 227 250 258 242 235 234 216 207 228 219 215 179 171 183 194 200 204 206 196 188 195 186 181 179 180 173 176 175 169 168 168 167 157 146 141 140 138 130 127 108 99 88 68 56 42 32 20
225 252 243 249 265 251 246 240 246 248 242 236 221 171 187 196 204 211 212 208 196 199 196 190 183 183 181 178 182 182 182 178 173 168 167 160 156 155 150 145 141 134 121 100 82 61 44 30 16
240 245 273 268 262 250 237 260 244 261 241 231 223 209 204 207 209 211 213 210 205 205 199 190 188 185 181 183 186 183 182 177 174 175 174 167 161 158 155 151 151 149 141 127 107 85 60 32 8
295 300 296 262 240 241 189 274 238 251 233 240 238 228 215 219 214 214 213 212 208 205 195 191 190 185 185 186 187 182 181 176 180 180 175 171 165 162 157 154 156 159 149 132 113 95 78 46 9
322 292 277 268 214 194 158 249 258 250 216 247 249 244 234 229 221 222 219 215 208 198 193 193 191 189 189 187 184 182 181 180 183 180 176 173 168 163 157 157 161 160 149 139 129 110 89 45 5
271 243 250 277 227 179 187 239 263 246 209 243 253 248 242 243 238 230 221 214 208 201 195 191 191 189 189 185 180 180 178 182 182 179 180 177 170 165 160 160 160 155 145 146 140 105 101 45 353
228 226 241 253 244 178 211 240 259 260 234 247 257 256 248 245 245 236 219 215 210 203 195 191 190 187 182 176 168 170 179 184 181 184 185 178 173 166 158 158 162 154 144 144 133 116 90 59 339
224 232 245 253 244 201 227 240 251 261 255 253 254 253 249 248 251 245 218 209 204 199 194 190 188 184 177 180 182 184 191 188 189 191 186 180 174 168 163 162 164 160 156 160 154 130 98 52 4
249 256 260 269 254 233 248 249 250 256 253 245 246 248 248 250 258 254 229 204 200 199 196 192 190 185 185 188 186 177 169 181 188 186 184 182 177 174 174 168 170 166 155 157 164 154 129 83 39
231 232 249 253 279 279 288 272 233 244 249 252 247 245 246 245 250 256 238 211 202 200 196 193 190 187 186 175 160 140 132 129 178 194 191 189 182 179 175 173 169 170 163 165 170 167 145 132 86
247 227 242 254 263 262 239 284 244 225 241 246 248 247 247 248 249 252 243 216 205 204 195 192 187 184 180 171 174 175 187 196 196 186 182 183 184 182 177 174 174 172 168 167 173 173 155 138 138
237 236 237 248 253 273 189 270 273 191 229 241 243 242 245 247 246 246 238 222 209 197 188 187 182 181 178 179 183 187 196 197 168 163 175 184 187 185 180 176 175 175 172 171 171 166 160 146 145
235 103 2 41 32 270 194 233 276 173 211 228 237 240 242 246 247 247 241 211 195 182 180 178 179 183 181 184 187 193 196 184 177 184 186 188 186 187 186 179 178 177 176 175 174 168 167 160 151
160 161 313 310 264 256 181 223 264 202 204 214 226 236 241 243 246 250 228 195 187 182 182 181 182 186 186 188 193 198 198 192 196 192 193 189 187 194 193 185 182 181 179 174 169 168 171 169 165
196 179 195 222 242 267 202 237 256 239 248 254 252 248 250 255 263 256 220 200 194 189 185 184 187 189 188 193 199 199 196 197 203 198 194 196 199 197 184 184 182 177 174 175 170 167 172 172 171
180 207 211 213 256 275 261 263 289 259 265 257 256 260 268 280 281 259 236 209 197 192 192 191 191 192 194 197 198 198 198 201 203 195 191 194 191 181 179 182 178 176 175 174 170 174 174 173 175
186 184 144 177 205 241 260 268 267 258 245 256 265 270 272 271 265 257 242 224 210 202 198 196 198 199 197 197 198 200 201 204 198 184 194 192 183 176 175 179 178 175 175 174 174 175 175 175 174
187 199 206 210 205 218 243 254 256 245 236 248 261 262 263 260 254 249 242 229 215 202 196 199 202 201 199 200 201 200 199 196 188 194 196 187 179 176 177 179 178 177 177 176 177 179 177 180 176
214 215 205 221 235 229 241 247 261 255 252 255 266 275 283 281 274 264 254 237 217 211 207 206 205 205 207 203 200 203 196 186 193 200 194 183 180 178 177 176 178 179 178 177 180 182 182 182 179